Flag for Albania Weather past 2 weeks in Durrës, Albania

Now
59 °F

Sunny.


Feels Like: 59 °F
Forecast: 54 / 66 °F
Wind: No wind

Location: Tirana Airport

Current Time: Apr 25, 2015 at 8:45:43 PM

Latest Report: Apr 25, 2015 at 8:20 PM


Visibility: 10 mi

Pressure: 30.04 "Hg

Humidity: 63%

Dew point: 46 °F

Location of DurrësLocation

Historic Weather in Durrës — Graph

°F

Durrës temperature yesterday

Maximum temperature yesterday: 68 °F (at 12:20 PM)
Minimum temperature yesterday: 48 °F (at 4:20 AM)
Average temperature yesterday: 59 °F

Past Weeks' High & Low Weather Summary

 TemperatureHumidityPressure
High73 °F (Apr 15, 2:50 PM)94% (Apr 12, 10:20 PM)30.36 "Hg (Apr 12, 10:20 PM)
Low37 °F (Apr 11, 5:50 AM)19% (Apr 15, 2:20 PM)29.89 "Hg (Apr 18, 3:20 PM)
Average58 °F61%30.13 "Hg
* Reported Apr 10 7:20 PM — Apr 25 7:50 PM, Durrës, Weather by CustomWeather, © 2015

Note: Actual official high and low records may vary slightly from our data, if they occured in-between our weather recording intervals... More about our weather records

Advertising

Durrës weather history for previous 24 hours

 ConditionsComfort  
Time TempWeatherWind HumidityBarometerVisibility
7:50 PM
Sat, Apr 25
59 °FSunny.3 mph63%30.04 "Hg10 mi
7:20 PM61 °FSunny.6 mph59%30.04 "Hg10 mi
6:50 PM64 °FSunny.7 mph49%30.04 "Hg10 mi
6:20 PM66 °FSunny.10 mph43%30.04 "Hg10 mi
5:50 PM66 °FSunny.10 mph43%30.04 "Hg10 mi
5:20 PM68 °FSunny.12 mph40%30.04 "Hg10 mi
4:50 PM68 °FPassing clouds.10 mph40%30.04 "HgN/A
4:20 PM68 °FSunny.13 mph40%30.04 "Hg10 mi
3:50 PM70 °FPassing clouds.12 mph38%30.04 "HgN/A
3:20 PM72 °FPassing clouds.9 mph36%30.04 "HgN/A
2:50 PM70 °FPassing clouds.12 mph38%30.04 "HgN/A
2:20 PM72 °FPassing clouds.9 mph36%30.04 "HgN/A
1:50 PM70 °FPassing clouds.7 mph35%30.07 "HgN/A
1:20 PM72 °FPassing clouds.8 mph38%30.07 "HgN/A
12:50 PM70 °FPassing clouds.7 mph38%30.07 "HgN/A
12:20 PM68 °FSunny.3 mph33%30.07 "Hg10 mi
11:50 AM68 °FPassing clouds.6 mph33%30.09 "HgN/A
11:20 AM68 °FPassing clouds.5 mph38%30.09 "HgN/A
10:50 AM68 °FSunny.2 mph43%30.09 "Hg10 mi
10:20 AM66 °FSunny.1 mph46%30.09 "Hg10 mi
9:50 AM64 °FSunny.No wind52%30.09 "Hg10 mi
9:20 AM64 °FSunny.2 mph56%30.09 "Hg10 mi
8:50 AM61 °FSunny.No wind63%30.09 "Hg10 mi
8:20 AM59 °FSunny.2 mph68%30.09 "Hg10 mi
7:50 AM55 °FPassing clouds.3 mph82%30.09 "HgN/A
7:20 AM54 °FScattered clouds.2 mph88%30.09 "HgN/A
6:50 AM52 °FScattered clouds.2 mph88%30.09 "HgN/A
6:20 AM52 °FPassing clouds.3 mph88%30.07 "HgN/A
5:20 AM52 °FPassing clouds.2 mph88%30.07 "HgN/A
4:50 AM52 °FPassing clouds.2 mph94%30.07 "HgN/A
4:20 AM52 °FPassing clouds.No wind88%30.07 "HgN/A
3:50 AM52 °FPassing clouds.2 mph94%30.07 "HgN/A
3:20 AM54 °FPartly cloudy.No wind88%30.09 "HgN/A
2:50 AM54 °FPassing clouds.No wind88%30.09 "HgN/A
1:50 AM54 °FPartly cloudy.2 mph88%30.09 "HgN/A
1:20 AM52 °FPartly cloudy.3 mph94%30.09 "HgN/A
12:50 AM54 °FPassing clouds.1 mph88%30.09 "HgN/A
12:20 AM54 °FPartly cloudy.5 mph82%30.12 "HgN/A
11:20 PM
Fri, Apr 24
55 °FPartly cloudy.3 mph82%30.12 "HgN/A
10:50 PM55 °FLight rain. Partly cloudy.3 mph82%30.12 "HgN/A
10:20 PM55 °FLight rain. Passing clouds.3 mph77%30.12 "HgN/A
9:50 PM55 °FLight rain. Partly cloudy.3 mph72%30.12 "HgN/A
9:20 PM57 °FLight rain. Partly cloudy.5 mph67%30.12 "HgN/A
8:50 PM59 °FLight rain. Mostly cloudy.6 mph55%30.12 "HgN/A
8:20 PM59 °FPartly sunny.1 mph51%30.09 "HgN/A
Weather by CustomWeather, © 2015

See weather overviewHow to use our weather pages